User: anonymous   Login
Location: Croisilles
(50.1998°N, 2.8793°E)
Time: 08:00:25
(UTC+00:00)
Language:

USA 234 - Orbit

View from above orbital plane
View from above orbital plane
View from above satellite
View from above satellite

Ground track
Ground track

The orbit data is extracted from the following two-line orbital elements,

1 38109U 12014A   21103.04114806 0.00000000  00000-0  00000-0 0    03
2 38109 122.9958   7.0244 0002002 134.2382 225.7617 13.41426616    07
Epoch (UTC): 13 April 2021 00:59:15
Eccentricity: 0.0002002
inclination: 122.9958°
perigee height: 1102 km
apogee height: 1105 km
right ascension of ascending node: 7.0244°
argument of perigee: 134.2382°
revolutions per day: 13.41426616
mean anomaly at epoch: 225.7617°
orbit number at epoch: 0

The dashed part of the orbit path shows where the satellite is in the earth's shadow,  

DLR